User: anonymous   Login
Location: New Plymouth
(39.0670°S, 174.0830°E)
Time: 10:27:18
(UTC+13:00)
Language:

Cosmos 1709 Rocket - Orbit

View from above orbital plane
View from above orbital plane
View from above satellite
View from above satellite

Ground track
Ground track

The orbit data is extracted from the following two-line orbital elements,

1 16369U 85116B   19322.80163963  .00000037  00000-0  21796-4 0  9998
2 16369  82.9406  50.3080 0036035 200.8918 309.0662 13.76841750703702
Epoch (UTC): 18 November 2019 19:14:21
Eccentricity: 0.0036035
inclination: 82.9406°
perigee height: 948 km
apogee height: 1001 km
right ascension of ascending node: 50.3080°
argument of perigee: 200.8918°
revolutions per day: 13.76841750
mean anomaly at epoch: 309.0662°
orbit number at epoch: 70370

The dashed part of the orbit path shows where the satellite is in the earth's shadow,  

DLR